TimeCDT,TemperatureF,Dew PointF,Humidity,Sea Level PressureIn,VisibilityMPH,Wind Direction,Wind SpeedMPH,Gust SpeedMPH,PrecipitationIn,Events,Conditions,WindDirDegrees,DateUTC
12:55 AM,52.0,37.0,57,30.09,10.0,SE,8.1,-,N/A,,Clear,140,2013-05-27 05:55:00
1:55 AM,48.9,34.0,56,30.09,10.0,SSE,8.1,-,N/A,,Clear,150,2013-05-27 06:55:00
2:55 AM,46.0,32.0,58,30.10,10.0,ESE,3.5,-,N/A,,Clear,120,2013-05-27 07:55:00
3:55 AM,37.9,33.1,83,30.11,10.0,Calm,Calm,-,N/A,,Clear,0,2013-05-27 08:55:00
4:55 AM,39.9,34.0,79,30.10,10.0,Calm,Calm,-,N/A,,Clear,0,2013-05-27 09:55:00
5:55 AM,43.0,33.1,68,30.10,10.0,Calm,Calm,-,N/A,,Clear,0,2013-05-27 10:55:00
6:55 AM,48.0,33.1,56,30.12,10.0,ESE,6.9,-,N/A,,Clear,110,2013-05-27 11:55:00
7:55 AM,53.1,35.1,50,30.09,10.0,SE,6.9,-,N/A,,Clear,130,2013-05-27 12:55:00
8:55 AM,57.9,37.0,46,30.07,10.0,Variable,3.5,-,N/A,,Clear,0,2013-05-27 13:55:00
9:55 AM,62.1,39.0,43,30.05,10.0,ESE,9.2,-,N/A,,Clear,110,2013-05-27 14:55:00
10:55 AM,66.0,37.9,36,30.01,10.0,ESE,12.7,16.1,N/A,,Clear,110,2013-05-27 15:55:00
11:55 AM,66.9,35.1,31,29.99,10.0,SE,16.1,24.2,N/A,,Clear,130,2013-05-27 16:55:00
12:55 PM,69.1,37.9,32,29.98,10.0,South,8.1,18.4,N/A,,Clear,170,2013-05-27 17:55:00
1:55 PM,70.0,44.1,39,29.96,10.0,SE,10.4,23.0,N/A,,Clear,140,2013-05-27 18:55:00
2:55 PM,72.0,45.0,38,29.93,10.0,SE,13.8,21.9,N/A,,Clear,130,2013-05-27 19:55:00
3:55 PM,73.0,43.0,34,29.92,10.0,South,10.4,19.6,N/A,,Clear,170,2013-05-27 20:55:00
4:55 PM,73.0,44.1,35,29.90,10.0,Variable,4.6,20.7,N/A,,Mostly Cloudy,0,2013-05-27 21:55:00
5:55 PM,69.1,45.0,42,29.90,10.0,SE,13.8,19.6,N/A,,Mostly Cloudy,140,2013-05-27 22:55:00
6:55 PM,68.0,45.0,43,29.90,10.0,SSE,9.2,-,N/A,,Overcast,150,2013-05-27 23:55:00
7:55 PM,66.0,44.1,45,29.90,10.0,Variable,6.9,-,N/A,,Overcast,0,2013-05-28 00:55:00
8:55 PM,64.0,43.0,46,29.88,10.0,Variable,3.5,-,N/A,,Overcast,0,2013-05-28 01:55:00
9:55 PM,62.1,44.1,52,29.88,10.0,SSE,4.6,-,N/A,,Overcast,150,2013-05-28 02:55:00
10:55 PM,62.1,42.1,48,29.88,10.0,SSE,4.6,-,N/A,,Overcast,150,2013-05-28 03:55:00
11:55 PM,60.1,43.0,53,29.87,10.0,SE,5.8,-,N/A,,Overcast,130,2013-05-28 04:55:00